• In Belarus
  • List of Countries
  • For 7 days
  • Water Temperature
  • Satellite Maps
  • Weather Map
  • Weather Widgets
  • user-avatar
    Login

    Hourly Weather Pereyaslav-Hmelnickij

    Today, 20 October, Friday

    Time Temperature Precipitation Wind Pressure Humidity
    00:00 +12°C° 0 mm 3 mps 754 mmHg 85%
    01:00 +12°C° 0 mm 3 mps 754 mmHg 86%
    02:00 +11°C° 0 mm 3 mps 754 mmHg 87%
    03:00 +11°C° 0 mm 3 mps 754 mmHg 88%
    04:00 +10°C° 0 mm 3 mps 754 mmHg 89%
    05:00 +10°C° 0 mm 3 mps 754 mmHg 90%
    06:00 +10°C° 0 mm 3 mps 754 mmHg 87%
    07:00 +10°C° 0 mm 4 mps 755 mmHg 85%
    08:00 +11°C° 0 mm 4 mps 755 mmHg 82%
    09:00 +12°C° 0 mm 4 mps 755 mmHg 77%
    10:00 +13°C° 0 mm 4 mps 755 mmHg 71%
    11:00 +14°C° 0 mm 4 mps 755 mmHg 65%
    12:00 +15°C° 0 mm 4 mps 755 mmHg 63%
    13:00 +15°C° 0 mm 4 mps 756 mmHg 61%
    14:00 +17°C° 0 mm 4 mps 756 mmHg 59%
    15:00 +14°C° 0 mm 4 mps 756 mmHg 62%
    16:00 +13°C° 0 mm 3 mps 756 mmHg 65%
    17:00 +12°C° 0 mm 3 mps 756 mmHg 68%
    18:00 +11°C° 0 mm 3 mps 756 mmHg 68%
    19:00 +11°C° 0 mm 3 mps 756 mmHg 69%
    20:00 +10°C° 0 mm 3 mps 757 mmHg 69%
    21:00 +9°C° 0 mm 3 mps 757 mmHg 70%
    22:00 +9°C° 0 mm 3 mps 757 mmHg 70%
    23:00 +8°C° 0 mm 2 mps 757 mmHg 70%

    Tomorrow, 21 October, Saturday

    Time Temperature Precipitation Wind Pressure Humidity
    00:00 +8°C° 0 mm 2 mps 757 mmHg 71%
    01:00 +7°C° 0 mm 2 mps 757 mmHg 72%
    02:00 +7°C° 0 mm 2 mps 757 mmHg 73%
    03:00 +7°C° 0 mm 2 mps 757 mmHg 74%
    04:00 +6°C° 0 mm 2 mps 757 mmHg 75%
    05:00 +6°C° 0 mm 2 mps 757 mmHg 76%
    06:00 +5°C° 0 mm 3 mps 757 mmHg 74%
    07:00 +5°C° 0 mm 3 mps 758 mmHg 72%
    08:00 +7°C° 0 mm 3 mps 758 mmHg 70%
    09:00 +8°C° 0 mm 3 mps 758 mmHg 64%
    10:00 +9°C° 0 mm 3 mps 758 mmHg 58%
    11:00 +11°C° 0 mm 3 mps 758 mmHg 52%
    12:00 +12°C° 0 mm 2 mps 757 mmHg 49%
    13:00 +13°C° 0 mm 2 mps 757 mmHg 46%
    14:00 +13°C° 0 mm 2 mps 756 mmHg 43%
    15:00 +12°C° 0 mm 2 mps 756 mmHg 46%
    16:00 +10°C° 0 mm 2 mps 756 mmHg 48%
    17:00 +10°C° 0 mm 2 mps 756 mmHg 51%
    18:00 +9°C° 0 mm 2 mps 756 mmHg 51%
    19:00 +9°C° 0 mm 3 mps 756 mmHg 52%
    20:00 +9°C° 0 mm 3 mps 756 mmHg 52%
    21:00 +8°C° 0.2 mm 3 mps 756 mmHg 55%
    22:00 +8°C° 0.2 mm 3 mps 756 mmHg 57%
    23:00 +8°C° 0.2 mm 3 mps 756 mmHg 60%

    Day after tomorrow, 22 October, Sunday

    Time Temperature Precipitation Wind Pressure Humidity
    00:00 +7°C° 0 mm 3 mps 756 mmHg 61%
    01:00 +7°C° 0 mm 3 mps 756 mmHg 62%
    02:00 +7°C° 0 mm 3 mps 756 mmHg 64%
    03:00 +7°C° 0 mm 2 mps 756 mmHg 65%
    04:00 +6°C° 0 mm 2 mps 756 mmHg 67%
    05:00 +6°C° 0 mm 2 mps 756 mmHg 69%
    06:00 +6°C° 0 mm 2 mps 756 mmHg 68%
    07:00 +5°C° 0 mm 3 mps 757 mmHg 68%
    08:00 +7°C° 0 mm 3 mps 757 mmHg 67%
    09:00 +8°C° 0 mm 3 mps 757 mmHg 61%
    10:00 +9°C° 0 mm 3 mps 757 mmHg 56%
    11:00 +10°C° 0 mm 3 mps 757 mmHg 50%
    12:00 +10°C° 0 mm 3 mps 757 mmHg 48%
    13:00 +12°C° 0 mm 2 mps 757 mmHg 46%
    14:00 +12°C° 0 mm 2 mps 756 mmHg 45%
    15:00 +10°C° 0 mm 2 mps 756 mmHg 48%
    16:00 +9°C° 0 mm 2 mps 756 mmHg 52%
    17:00 +8°C° 0 mm 2 mps 756 mmHg 55%
    18:00 +7°C° 0 mm 2 mps 757 mmHg 57%
    19:00 +7°C° 0 mm 2 mps 757 mmHg 58%
    20:00 +5°C° 0 mm 3 mps 757 mmHg 60%
    21:00 +5°C° 0 mm 3 mps 757 mmHg 60%
    22:00 +4°C° 0 mm 3 mps 757 mmHg 61%
    23:00 +4°C° 0 mm 3 mps 757 mmHg 61%

    23 October, Monday

    Time Temperature Precipitation Wind Pressure Humidity
    00:00 +4°C° 0 mm 3 mps 757 mmHg 61%
    01:00 +4°C° 0 mm 3 mps 757 mmHg 61%
    02:00 +4°C° 0 mm 3 mps 757 mmHg 61%
    03:00 +3°C° 0 mm 3 mps 757 mmHg 61%
    04:00 +3°C° 0 mm 3 mps 757 mmHg 61%
    05:00 +3°C° 0 mm 3 mps 757 mmHg 61%
    06:00 +3°C° 0 mm 3 mps 757 mmHg 61%
    07:00 +4°C° 0 mm 3 mps 758 mmHg 60%
    08:00 +4°C° 0 mm 4 mps 758 mmHg 59%
    09:00 +5°C° 0 mm 4 mps 758 mmHg 55%
    10:00 +7°C° 0 mm 4 mps 758 mmHg 51%
    11:00 +8°C° 0 mm 4 mps 758 mmHg 47%
    12:00 +10°C° 0 mm 4 mps 758 mmHg 46%
    13:00 +10°C° 0 mm 4 mps 757 mmHg 45%
    14:00 +11°C° 0 mm 3 mps 757 mmHg 43%
    15:00 +10°C° 0 mm 3 mps 757 mmHg 46%
    16:00 +9°C° 0 mm 3 mps 757 mmHg 50%
    17:00 +8°C° 0 mm 3 mps 757 mmHg 53%
    18:00 +7°C° 0 mm 3 mps 758 mmHg 53%
    19:00 +7°C° 0 mm 3 mps 758 mmHg 54%
    20:00 +5°C° 0 mm 4 mps 758 mmHg 54%
    21:00 +4°C° 0 mm 3 mps 758 mmHg 55%
    22:00 +4°C° 0 mm 3 mps 758 mmHg 55%
    23:00 +3°C° 0 mm 3 mps 759 mmHg 55%

    24 October, Tuesday

    Time Temperature Precipitation Wind Pressure Humidity
    00:00 +3°C° 0 mm 3 mps 759 mmHg 56%
    01:00 +3°C° 0 mm 3 mps 759 mmHg 56%
    02:00 +2°C° 0 mm 3 mps 759 mmHg 57%
    03:00 +2°C° 0 mm 3 mps 759 mmHg 57%
    04:00 +2°C° 0 mm 3 mps 760 mmHg 58%
    05:00 +1°C° 0 mm 3 mps 760 mmHg 58%
    06:00 +2°C° 0 mm 3 mps 760 mmHg 57%
    07:00 +2°C° 0 mm 3 mps 761 mmHg 56%
    08:00 +2°C° 0 mm 3 mps 761 mmHg 54%
    09:00 +4°C° 0 mm 3 mps 761 mmHg 50%
    10:00 +5°C° 0 mm 3 mps 761 mmHg 45%
    11:00 +8°C° 0 mm 3 mps 761 mmHg 41%
    12:00 +7°C° 0 mm 4 mps 761 mmHg 39%
    13:00 +7°C° 0 mm 4 mps 761 mmHg 38%
    14:00 +8°C° 0 mm 4 mps 761 mmHg 37%
    15:00 +7°C° 0 mm 4 mps 761 mmHg 41%
    16:00 +7°C° 0 mm 3 mps 762 mmHg 44%
    17:00 +5°C° 0 mm 3 mps 762 mmHg 48%
    18:00 +4°C° 0 mm 3 mps 762 mmHg 50%
    19:00 +3°C° 0 mm 4 mps 763 mmHg 52%
    20:00 +3°C° 0 mm 4 mps 763 mmHg 54%
    21:00 +1°C° 0 mm 4 mps 763 mmHg 56%
    22:00 +1°C° 0 mm 4 mps 764 mmHg 57%
    23:00 +1°C° 0 mm 4 mps 764 mmHg 58%

    25 October, Wednesday

    Time Temperature Precipitation Wind Pressure Humidity
    00:00 0°C° 0 mm 4 mps 765 mmHg 59%
    01:00 0°C° 0 mm 4 mps 765 mmHg 59%
    02:00 0°C° 0 mm 4 mps 765 mmHg 60%
    03:00 -1°C° 0 mm 4 mps 766 mmHg 61%
    04:00 -1°C° 0 mm 4 mps 766 mmHg 62%
    05:00 -1°C° 0 mm 4 mps 766 mmHg 63%
    06:00 -1°C° 0 mm 4 mps 767 mmHg 62%
    07:00 -1°C° 0 mm 5 mps 767 mmHg 62%
    08:00 -1°C° 0 mm 5 mps 768 mmHg 61%
    09:00 +1°C° 0 mm 5 mps 768 mmHg 56%
    10:00 +2°C° 0 mm 5 mps 768 mmHg 52%
    11:00 +3°C° 0 mm 6 mps 768 mmHg 47%
    12:00 +3°C° 0 mm 6 mps 768 mmHg 46%
    13:00 +4°C° 0 mm 6 mps 768 mmHg 45%
    14:00 +4°C° 0 mm 6 mps 768 mmHg 44%
    15:00 +3°C° 0 mm 5 mps 768 mmHg 46%
    16:00 +2°C° 0 mm 5 mps 769 mmHg 49%
    17:00 +1°C° 0 mm 4 mps 769 mmHg 52%
    18:00 +1°C° 0 mm 4 mps 769 mmHg 53%
    19:00 0°C° 0 mm 4 mps 770 mmHg 55%
    20:00 0°C° 0 mm 5 mps 770 mmHg 57%
    21:00 0°C° 0 mm 4 mps 770 mmHg 59%
    22:00 -1°C° 0 mm 4 mps 770 mmHg 61%
    23:00 -1°C° 0 mm 4 mps 771 mmHg 64%
    Show more